{"data":{"norad_id":47356,"epoch":"2026-05-25T00:31:39.789984Z","epoch_age_seconds":63241,"freshness":"FRESH","line1":"1 47356U 21005H   26145.02198831 -.00001833  00000+0 -47327-4 0  9996","line2":"2 47356  53.1594  41.9468 0001118  91.6705 268.4424 15.31698607295074","mean_motion":15.31698607,"eccentricity":0.0001118,"inclination_deg":53.1594,"raan_deg":41.9468,"arg_perigee_deg":91.6705,"mean_anomaly_deg":268.4424,"bstar":-4.7327e-5,"rev_number":29507,"period_min":94.01327346118,"perigee_km":469.978442777,"apogee_km":471.50985260162,"semimajor_km":6848.8811476893,"source":"CELESTRAK","updated_at":"2026-05-25T13:38:16.524639Z"}}